Погода в Бярийе

Россия / Республика Саха (Якутия)     62°53′18″N   131°54′53″E
темп.,
°C
ветер,
м/с
пор.,
м/с
влажн.,
%
обл.,
%
осадки,
мм/ч
давл.,
гПа
погр.,
м
8 мая, сб
сб800:00+1сз119259 0.0 101410
03:000сз22895 0.0 101417
06:00+4сз247628 0.0 1014138
09:00+8сз245899 0.0 1014551
12:00+11сз235195 0.0 10141432
15:00+11ссз335191 0.1 10131430
18:00+10сз336287 0.0 1014765
21:00+4сз258979 0.0 101588
9 мая, вс
вс900:00+2зсз2294100 0.0 101526
03:00+1зсз1194100 0.0 101514
06:00+3зсз1384100 0.0 1015128
09:00+8сз1263100 0.0 1015559
12:00+11сз2249100 0.0 10141218
15:00+12сз2343100 0.0 10131639
18:00+11сз2353100 0.0 1013862
21:00+5сз2584100 0.0 101497
10 мая, пн
пн1000:00+2зсз22825 0.0 101422
03:00+1з228624 0.0 101422
06:00+3з237399 0.0 1014167
09:00+8з244345 0.0 1014831
12:00+11з343260 0.0 10131475
15:00+12зсз343259 0.0 10131819
18:00+11сз343972 0.0 10131637
21:00+6сз266978 0.0 1014134
11 мая, вт
вт1100:00+3зсз267922 0.0 1015135
03:000зсз248552 0.0 101695
06:00+3з237183 0.0 1016229
09:00+7з2350100 0.0 1015692
12:00+10з2242100 0.0 10141352
15:00+12зюз2238100 0.0 10131875
18:00+11з2243100 0.0 10131320
21:00+6сз2762100 0.0 1014212
12 мая, ср
ср1200:00+4зсз2481100 0.0 1014116
03:00+3зсз1186100 0.0 101433
06:00+5сз117599 0.0 1013193
09:00+9ссв116097 0.0 1013999
12:00+8всв326663 0.1 1013906
15:00+9всв226181 0.3 10121042
18:00+10с225336 0.1 10121250
21:00+5ссз117816 0.1 101311